Погода в Ходзи

Россия / Республика Адыгея     44°30′56″N   40°42′37″E
темп.,
°C
ветер,
м/с
пор.,
м/с
влажн.,
%
обл.,
%
осадки,
мм/ч
давл.,
гПа
погр.,
м
15 апреля, чт
чт1500:00+7ююв228939 0.0 101823
03:00+6ююв339067 0.0 101844
06:00+6ю32821 0.0 101828
09:00+12ююв22615 0.0 1018326
12:00+17ссв1146100 0.0 10161340
15:00+17с2248100 0.0 10161684
18:00+13ссз3474100 0.3 101778
21:00+9в008779 0.3 101910
16 апреля, пт
пт1600:00+8ююв339038 0.0 101825
03:00+7ююв348897 0.0 101846
06:00+8ю228178 0.0 101825
09:00+12сз337375 0.0 1018424
12:00+13ссз327587 0.0 1018796
15:00+11сз459474 1.9 1019424
18:00+10сз2389100 0.1 1019442
21:00+9всв1394100 0.3 1021159
17 апреля, сб
сб1700:00+9с1196100 0.2 101934
03:00+8сз3798100 3.8 1021396
06:00+8сз3698100 1.6 1022428
09:00+8ссз2292100 1.9 1023377
12:00+9ссв2287100 0.1 1023514
15:00+9св1287100 0.3 1023324
18:00+9всв2494100 0.6 1023214
21:00+9в2393100 0.7 102280
18 апреля, вс
вс1800:00+9ю1190100 0.0 102117
03:00+7св1190100 0.0 102010
06:00+8ююв1190100 0.1 102018
09:00+9всв0193100 0.9 101956
12:00+14св327423 0.0 1018581
15:00+14ссв447948 0.2 1018419
18:00+12св2593100 1.1 1020187
21:00+11вюв239599 1.5 102169
19 апреля, пн
пн1900:00+10вюв2394100 0.0 102042
03:00+10ююв229478 0.0 102029
06:00+10юв2392100 0.0 101937
09:00+15юв2480100 0.0 1019255
12:00+18вюв4572100 0.2 1018545
15:00+20в6764100 0.2 1016904
18:00+16вюв71377100 0.0 1015466
21:00+13вюв61282100 0.0 1013283